{"data":{"norad_id":49954,"intl_designator":"2021-121A","name":"IXPE","alt_names":[],"object_type":"PAYLOAD","status":"ACTIVE","operator":null,"country":"US","launch_date":"2021-12-09","launch_site_code":"AFETR","launch_vehicle":null,"mission":null,"orbit_class":"UNKNOWN","rcs_meters":null,"size_class":null,"mass_kg":null,"dimensions":null,"purposes":["science"],"wikipedia_slug":null,"has_3d_model":false,"image_url":null,"decayed_at":null,"tle_current":{"epoch":"2026-05-25T06:00:02.000160Z","epoch_age_seconds":53221,"freshness":"FRESH","line1":"1 49954U 21121A   26145.25002315  .00011336  00000+0  62118-3 0  9998","line2":"2 49954   0.2285 130.5113 0007356  94.3120  96.3920 15.10005219  5439","mean_motion":15.10005219,"eccentricity":0.0007356,"inclination_deg":0.2285,"raan_deg":130.5113,"arg_perigee_deg":94.312,"mean_anomaly_deg":96.392,"bstar":0.00062118,"rev_number":543,"period_min":95.363908805139,"perigee_km":531.09789655929,"apogee_km":541.27024571915,"semimajor_km":6914.3210711392,"source":"CELESTRAK","updated_at":"2026-05-25T13:38:24.646780Z"}}}